Location: Boiro
(42.6475°N, 8.8834°W)
Time: 21:22:15
(UTC+01:00)

Vanguard 1 - Pass Details

Date: 07 December 2021
Orbit: 652 x 3830 km, 34.2° (Epoch: 19 January)

Event Time Altitude Azimuth Distance (km) Brightness Sun altitude
Rises 00:03:46 0° 227° (SW) 6,574 14.3 -63.5°
Reaches altitude 10° 00:07:46 10° 222° (SW) 5,898 13.9 -64.1°
Enters shadow 00:08:31 12° 221° (SW) 5,781 13.9 -64.2°
Maximum altitude 00:26:57 53° 153° (SSE) 4,325 - -66.4°
Drops below altitude 10° 00:48:30 10° 85° (E) 6,564 - -68.4°
Exits shadow 00:49:37 - 84° (E) 6,741 14.2 -68.5°
Sets 00:53:13 0° 81° (E) 7,329 14.5 -68.8°
